Time,TemperatureF,DewpointF,PressureIn,WindDirection,WindDirectionDegrees,WindSpeedMPH,WindSpeedGustMPH,Humidity,HourlyPrecipIn,Conditions,Clouds,dailyrainin,SoftwareType,DateUTC
2013-03-11 00:01:00,72.7,63.1,29.95,ESE,120,0.0,0.0,72,0.00,CLR,,0.00,WeatherDisplay:10.37,2013-03-10 13:01:00,
2013-03-11 00:06:00,72.7,63.1,29.95,SE,131,1.0,3.0,72,0.00,CLR,,0.00,WeatherDisplay:10.37,2013-03-10 13:06:00,
2013-03-11 00:11:00,72.5,63.0,29.95,South,179,0.0,0.0,72,0.00,CLR,,0.00,WeatherDisplay:10.37,2013-03-10 13:11:00,
2013-03-11 00:16:00,72.5,63.0,29.95,SSW,196,0.0,0.0,72,0.00,CLR,,0.00,WeatherDisplay:10.37,2013-03-10 13:16:00,
2013-03-11 00:21:00,72.3,62.8,29.95,SSE,157,0.0,0.0,72,0.00,CLR,,0.00,WeatherDisplay:10.37,2013-03-10 13:21:00,
2013-03-11 00:26:00,72.3,62.8,29.94,SSE,149,0.0,2.0,72,0.00,CLR,,0.00,WeatherDisplay:10.37,2013-03-10 13:26:00,
2013-03-11 00:31:00,72.3,62.8,29.94,SSE,165,0.0,0.0,72,0.00,CLR,,0.00,WeatherDisplay:10.37,2013-03-10 13:31:00,
2013-03-11 00:36:00,72.2,62.6,29.94,South,178,0.0,0.0,72,0.00,CLR,,0.00,WeatherDisplay:10.37,2013-03-10 13:36:00,
2013-03-11 00:41:00,72.1,63.0,29.94,South,183,0.0,0.0,73,0.00,CLR,,0.00,WeatherDisplay:10.37,2013-03-10 13:41:00,
2013-03-11 00:46:00,72.0,62.8,29.94,WSW,244,0.0,0.0,73,0.00,CLR,,0.00,WeatherDisplay:10.37,2013-03-10 13:46:00,
2013-03-11 00:51:00,72.0,62.8,29.94,South,191,0.0,0.0,73,0.00,CLR,,0.00,WeatherDisplay:10.37,2013-03-10 13:51:00,
2013-03-11 00:56:00,71.8,62.7,29.94,South,172,0.0,0.0,73,0.00,CLR,,0.00,WeatherDisplay:10.37,2013-03-10 13:56:00,
2013-03-11 01:01:00,71.8,62.7,29.94,SW,220,0.0,0.0,73,0.00,CLR,,0.00,WeatherDisplay:10.37,2013-03-10 14:01:00,
2013-03-11 01:06:00,71.8,62.7,29.93,SSW,206,0.0,0.0,73,0.00,CLR,,0.00,WeatherDisplay:10.37,2013-03-10 14:06:00,
2013-03-11 01:11:00,71.7,62.6,29.93,South,170,0.0,0.0,73,0.00,CLR,,0.00,WeatherDisplay:10.37,2013-03-10 14:11:00,
2013-03-11 01:16:00,71.4,62.3,29.93,SSE,151,0.0,0.0,73,0.00,CLR,,0.00,WeatherDisplay:10.37,2013-03-10 14:16:00,
2013-03-11 01:21:00,71.4,62.3,29.93,SSE,151,0.0,0.0,73,0.00,CLR,,0.00,WeatherDisplay:10.37,2013-03-10 14:21:00,
2013-03-11 01:26:00,71.4,62.3,29.93,SSE,157,0.0,0.0,73,0.00,CLR,,0.00,WeatherDisplay:10.37,2013-03-10 14:26:00,
2013-03-11 01:31:00,71.2,62.1,29.93,SSE,157,0.0,0.0,73,0.00,CLR,,0.00,WeatherDisplay:10.37,2013-03-10 14:31:00,
2013-03-11 01:36:00,71.1,62.0,29.93,SSE,158,0.0,0.0,73,0.00,CLR,,0.00,WeatherDisplay:10.37,2013-03-10 14:36:00,
2013-03-11 01:41:00,70.9,61.8,29.93,SSE,158,0.0,0.0,73,0.00,CLR,,0.00,WeatherDisplay:10.37,2013-03-10 14:41:00,
2013-03-11 01:46:00,70.7,62.0,29.93,SSE,159,0.0,0.0,74,0.00,CLR,,0.00,WeatherDisplay:10.37,2013-03-10 14:46:00,
2013-03-11 01:51:00,70.5,61.8,29.93,SE,135,0.0,0.0,74,0.00,CLR,,0.00,WeatherDisplay:10.37,2013-03-10 14:51:00,
2013-03-11 01:56:00,70.3,61.7,29.93,ESE,106,0.0,0.0,74,0.00,CLR,,0.00,WeatherDisplay:10.37,2013-03-10 14:56:00,
2013-03-11 02:01:00,70.2,61.5,29.93,ESE,102,0.0,0.0,74,0.00,CLR,,0.00,WeatherDisplay:10.37,2013-03-10 15:01:00,
2013-03-11 02:06:00,70.1,61.4,29.93,East,101,0.0,0.0,74,0.00,CLR,,0.00,WeatherDisplay:10.37,2013-03-10 15:06:00,
2013-03-11 02:11:00,70.0,61.3,29.93,ESE,103,0.0,0.0,74,0.00,CLR,,0.00,WeatherDisplay:10.37,2013-03-10 15:11:00,
2013-03-11 02:16:00,69.6,61.0,29.92,ESE,109,0.0,0.0,74,0.00,CLR,,0.00,WeatherDisplay:10.37,2013-03-10 15:16:00,
2013-03-11 02:21:00,69.6,61.0,29.93,ESE,111,0.0,0.0,74,0.00,CLR,,0.00,WeatherDisplay:10.37,2013-03-10 15:21:00,
2013-03-11 02:26:00,69.4,61.2,29.92,ESE,111,0.0,0.0,75,0.00,CLR,,0.00,WeatherDisplay:10.37,2013-03-10 15:26:00,
2013-03-11 02:31:00,69.3,61.1,29.92,ESE,110,0.0,0.0,75,0.00,CLR,,0.00,WeatherDisplay:10.37,2013-03-10 15:31:00,
2013-03-11 02:36:00,69.1,60.8,29.92,ESE,107,0.0,0.0,75,0.00,CLR,,0.00,WeatherDisplay:10.37,2013-03-10 15:36:00,
2013-03-11 02:41:00,69.0,60.7,29.92,ESE,107,0.0,0.0,75,0.00,CLR,,0.00,WeatherDisplay:10.37,2013-03-10 15:41:00,
2013-03-11 02:46:00,68.7,60.9,29.92,ESE,109,0.0,0.0,76,0.00,CLR,,0.00,WeatherDisplay:10.37,2013-03-10 15:46:00,
2013-03-11 02:51:00,68.7,60.8,29.92,ESE,107,0.0,0.0,76,0.00,CLR,,0.00,WeatherDisplay:10.37,2013-03-10 15:51:00,
2013-03-11 02:56:00,68.5,60.7,29.92,ESE,110,0.0,0.0,76,0.00,CLR,,0.00,WeatherDisplay:10.37,2013-03-10 15:56:00,
2013-03-11 03:01:00,68.5,60.7,29.91,SE,138,0.0,0.0,76,0.00,CLR,,0.00,WeatherDisplay:10.37,2013-03-10 16:01:00,
2013-03-11 03:06:00,68.4,60.5,29.91,South,175,0.0,0.0,76,0.00,CLR,,0.00,WeatherDisplay:10.37,2013-03-10 16:06:00,
2013-03-11 03:11:00,68.4,60.5,29.91,South,183,0.0,0.0,76,0.00,CLR,,0.00,WeatherDisplay:10.37,2013-03-10 16:11:00,
2013-03-11 03:16:00,68.2,60.3,29.91,South,191,0.0,0.0,76,0.00,CLR,,0.00,WeatherDisplay:10.37,2013-03-10 16:16:00,
2013-03-11 03:21:00,68.2,60.3,29.91,SSW,213,0.0,0.0,76,0.00,CLR,,0.00,WeatherDisplay:10.37,2013-03-10 16:21:00,
2013-03-11 03:26:00,68.2,60.3,29.91,WSW,240,0.0,0.0,76,0.00,CLR,,0.00,WeatherDisplay:10.37,2013-03-10 16:26:00,
2013-03-11 03:36:00,67.9,60.0,29.91,SW,232,0.0,0.0,76,0.00,CLR,,0.00,WeatherDisplay:10.37,2013-03-10 16:36:00,
2013-03-11 03:41:00,67.8,60.0,29.91,SW,236,0.0,0.0,76,0.00,CLR,,0.00,WeatherDisplay:10.37,2013-03-10 16:41:00,
2013-03-11 03:46:00,67.8,60.3,29.91,WSW,250,0.0,0.0,77,0.00,CLR,,0.00,WeatherDisplay:10.37,2013-03-10 16:46:00,
2013-03-11 03:51:00,67.8,60.3,29.92,WSW,240,0.0,0.0,77,0.00,CLR,,0.00,WeatherDisplay:10.37,2013-03-10 16:51:00,
2013-03-11 03:56:00,67.6,60.2,29.92,SW,218,0.0,0.0,77,0.00,CLR,,0.00,WeatherDisplay:10.37,2013-03-10 16:56:00,
2013-03-11 04:01:00,67.6,60.2,29.91,SSW,207,0.0,0.0,77,0.00,CLR,,0.00,WeatherDisplay:10.37,2013-03-10 17:01:00,
2013-03-11 04:06:00,67.6,60.2,29.91,SSW,212,0.0,0.0,77,0.00,CLR,,0.00,WeatherDisplay:10.37,2013-03-10 17:06:00,
2013-03-11 04:11:00,67.6,60.2,29.92,SW,217,0.0,0.0,77,0.00,CLR,,0.00,WeatherDisplay:10.37,2013-03-10 17:11:00,
2013-03-11 04:16:00,67.5,60.0,29.92,SSW,210,0.0,0.0,77,0.00,CLR,,0.00,WeatherDisplay:10.37,2013-03-10 17:16:00,
2013-03-11 04:21:00,67.3,59.8,29.91,SW,220,0.0,0.0,77,0.00,CLR,,0.00,WeatherDisplay:10.37,2013-03-10 17:21:00,
2013-03-11 04:26:00,67.3,59.8,29.91,SW,220,0.0,0.0,77,0.00,CLR,,0.00,WeatherDisplay:10.37,2013-03-10 17:26:00,
2013-03-11 04:31:00,67.3,59.8,29.91,SSW,212,0.0,0.0,77,0.00,CLR,,0.00,WeatherDisplay:10.37,2013-03-10 17:31:00,
2013-03-11 04:36:00,67.1,60.0,29.91,SW,214,0.0,0.0,78,0.00,CLR,,0.00,WeatherDisplay:10.37,2013-03-10 17:36:00,
2013-03-11 04:41:00,66.9,59.8,29.91,SSW,211,0.0,0.0,78,0.00,CLR,,0.00,WeatherDisplay:10.37,2013-03-10 17:41:00,
2013-03-11 04:46:00,66.9,59.8,29.91,SSW,212,0.0,0.0,78,0.00,CLR,,0.00,WeatherDisplay:10.37,2013-03-10 17:46:00,
2013-03-11 04:51:00,66.9,59.8,29.91,SSW,210,0.0,0.0,78,0.00,CLR,,0.00,WeatherDisplay:10.37,2013-03-10 17:51:00,
2013-03-11 04:56:00,66.9,59.8,29.91,SSW,210,0.0,0.0,78,0.00,CLR,,0.00,WeatherDisplay:10.37,2013-03-10 17:56:00,
2013-03-11 05:01:00,66.8,59.7,29.91,SW,218,0.0,0.0,78,0.00,CLR,,0.00,WeatherDisplay:10.37,2013-03-10 18:01:00,
2013-03-11 05:06:00,66.7,59.7,29.91,SW,235,0.0,0.0,78,0.00,CLR,,0.00,WeatherDisplay:10.37,2013-03-10 18:06:00,
2013-03-11 05:11:00,66.7,59.7,29.91,WSW,244,0.0,0.0,78,0.00,CLR,,0.00,WeatherDisplay:10.37,2013-03-10 18:11:00,
2013-03-11 05:16:00,66.7,59.7,29.91,West,264,0.0,0.0,78,0.00,CLR,,0.00,WeatherDisplay:10.37,2013-03-10 18:16:00,
2013-03-11 05:21:00,66.7,59.7,29.92,WNW,290,0.0,0.0,78,0.00,CLR,,0.00,WeatherDisplay:10.37,2013-03-10 18:21:00,
2013-03-11 05:26:00,66.7,59.7,29.92,WNW,286,0.0,0.0,78,0.00,CLR,,0.00,WeatherDisplay:10.37,2013-03-10 18:26:00,
2013-03-11 05:31:00,66.6,59.8,29.92,WSW,252,0.0,0.0,79,0.00,CLR,,0.00,WeatherDisplay:10.37,2013-03-10 18:31:00,
2013-03-11 05:36:00,66.6,59.8,29.92,SW,224,0.0,0.0,79,0.00,CLR,,0.00,WeatherDisplay:10.37,2013-03-10 18:36:00,
2013-03-11 05:41:00,66.6,59.8,29.92,SSW,193,0.0,0.0,79,0.00,CLR,,0.00,WeatherDisplay:10.37,2013-03-10 18:41:00,
2013-03-11 05:46:00,66.4,59.7,29.92,SSW,198,0.0,0.0,79,0.00,CLR,,0.00,WeatherDisplay:10.37,2013-03-10 18:46:00,
2013-03-11 05:51:00,66.4,59.7,29.93,SSW,197,0.0,0.0,79,0.00,CLR,,0.00,WeatherDisplay:10.37,2013-03-10 18:51:00,
2013-03-11 05:56:00,66.4,59.7,29.93,South,187,0.0,0.0,79,0.00,CLR,,0.00,WeatherDisplay:10.37,2013-03-10 18:56:00,
2013-03-11 06:01:00,66.4,59.7,29.93,South,184,0.0,0.0,79,0.00,CLR,,0.00,WeatherDisplay:10.37,2013-03-10 19:01:00,
2013-03-11 06:06:00,66.4,60.0,29.93,South,191,0.0,0.0,80,0.00,CLR,,0.00,WeatherDisplay:10.37,2013-03-10 19:06:00,
2013-03-11 06:11:00,66.6,60.2,29.93,South,191,0.0,0.0,80,0.00,CLR,,0.00,WeatherDisplay:10.37,2013-03-10 19:11:00,
2013-03-11 06:16:00,66.6,60.2,29.94,SSW,192,0.0,0.0,80,0.00,CLR,,0.00,WeatherDisplay:10.37,2013-03-10 19:16:00,
2013-03-11 06:21:00,66.6,60.2,29.93,SSW,197,0.0,0.0,80,0.00,CLR,,0.00,WeatherDisplay:10.37,2013-03-10 19:21:00,
2013-03-11 06:26:00,66.7,60.3,29.94,South,191,0.0,0.0,80,0.00,CLR,,0.00,WeatherDisplay:10.37,2013-03-10 19:26:00,
2013-03-11 06:31:00,66.7,60.4,29.94,South,185,0.0,0.0,80,0.00,CLR,,0.00,WeatherDisplay:10.37,2013-03-10 19:31:00,
2013-03-11 06:36:00,66.7,60.4,29.94,South,185,0.0,0.0,80,0.00,CLR,,0.00,WeatherDisplay:10.37,2013-03-10 19:36:00,
2013-03-11 06:41:00,66.7,60.4,29.95,SSW,192,0.0,0.0,80,0.00,CLR,,0.00,WeatherDisplay:10.37,2013-03-10 19:41:00,
2013-03-11 06:46:00,66.7,60.4,29.95,SSE,164,0.0,0.0,80,0.00,CLR,,0.00,WeatherDisplay:10.37,2013-03-10 19:46:00,
2013-03-11 06:51:00,66.7,60.4,29.95,SE,133,0.0,0.0,80,0.00,CLR,,0.00,WeatherDisplay:10.37,2013-03-10 19:51:00,
2013-03-11 06:56:00,66.7,60.4,29.95,South,170,0.0,0.0,80,0.00,CLR,,0.00,WeatherDisplay:10.37,2013-03-10 19:56:00,
2013-03-11 07:01:00,66.7,60.4,29.95,SSE,148,0.0,0.0,80,0.00,CLR,,0.00,WeatherDisplay:10.37,2013-03-10 20:01:00,
2013-03-11 07:06:00,66.7,60.4,29.95,ENE,78,0.0,0.0,80,0.00,CLR,,0.00,WeatherDisplay:10.37,2013-03-10 20:06:00,
2013-03-11 07:16:00,66.7,60.4,29.96,ENE,62,0.0,0.0,80,0.00,CLR,,0.00,WeatherDisplay:10.37,2013-03-10 20:16:00,
2013-03-11 07:21:00,66.7,60.4,29.96,NE,51,0.0,0.0,80,0.00,CLR,,0.00,WeatherDisplay:10.37,2013-03-10 20:21:00,
2013-03-11 07:26:00,66.8,60.4,29.96,SSW,203,0.0,0.0,80,0.00,CLR,,0.00,WeatherDisplay:10.37,2013-03-10 20:26:00,
2013-03-11 07:31:00,66.8,60.5,29.96,SSW,213,0.0,0.0,80,0.00,CLR,,0.00,WeatherDisplay:10.37,2013-03-10 20:31:00,
2013-03-11 07:36:00,66.8,60.4,29.96,SSW,210,0.0,0.0,80,0.00,CLR,,0.00,WeatherDisplay:10.37,2013-03-10 20:36:00,
2013-03-11 07:41:00,66.9,60.5,29.96,SSW,210,0.0,0.0,80,0.00,CLR,,0.00,WeatherDisplay:10.37,2013-03-10 20:41:00,
2013-03-11 07:46:00,66.9,60.9,29.97,South,185,0.0,0.0,81,0.00,CLR,,0.00,WeatherDisplay:10.37,2013-03-10 20:46:00,
2013-03-11 07:51:00,67.0,61.0,29.97,SSE,157,0.0,0.0,81,0.00,CLR,,0.00,WeatherDisplay:10.37,2013-03-10 20:51:00,
2013-03-11 07:56:00,67.3,61.2,29.97,SSE,157,0.0,0.0,81,0.00,CLR,,0.00,WeatherDisplay:10.37,2013-03-10 20:56:00,
2013-03-11 08:01:00,67.3,61.2,29.98,SSE,156,0.0,0.0,81,0.00,CLR,,0.00,WeatherDisplay:10.37,2013-03-10 21:01:00,
2013-03-11 08:06:00,67.6,61.6,29.98,SSE,157,0.0,0.0,81,0.00,CLR,,0.00,WeatherDisplay:10.37,2013-03-10 21:06:00,
2013-03-11 08:11:00,67.7,61.7,29.98,SSE,158,0.0,0.0,81,0.00,CLR,,0.00,WeatherDisplay:10.37,2013-03-10 21:11:00,
2013-03-11 08:16:00,67.8,61.8,29.98,SE,143,0.0,0.0,81,0.00,CLR,,0.00,WeatherDisplay:10.37,2013-03-10 21:16:00,
2013-03-11 08:26:00,68.5,62.4,29.98,NE,46,0.0,0.0,81,0.00,CLR,,0.00,WeatherDisplay:10.37,2013-03-10 21:26:00,
2013-03-11 08:31:00,68.8,63.0,29.98,East,95,0.0,0.0,82,0.00,CLR,,0.00,WeatherDisplay:10.37,2013-03-10 21:31:00,
2013-03-11 08:36:00,69.4,63.7,29.98,East,96,0.0,0.0,82,0.00,CLR,,0.00,WeatherDisplay:10.37,2013-03-10 21:36:00,
2013-03-11 08:41:00,69.9,64.2,29.98,NE,53,0.0,0.0,82,0.00,CLR,,0.00,WeatherDisplay:10.37,2013-03-10 21:41:00,
2013-03-11 08:46:00,70.6,64.8,29.98,NNE,30,0.0,0.0,82,0.00,CLR,,0.00,WeatherDisplay:10.37,2013-03-10 21:46:00,
2013-03-11 08:51:00,71.2,65.1,29.98,North,354,0.0,0.0,81,0.00,CLR,,0.00,WeatherDisplay:10.37,2013-03-10 21:51:00,
2013-03-11 08:56:00,71.8,65.6,29.98,NNW,329,0.0,0.0,81,0.00,CLR,,0.00,WeatherDisplay:10.37,2013-03-10 21:56:00,
2013-03-11 09:01:00,72.1,65.6,29.98,NW,323,0.0,0.0,80,0.00,CLR,,0.00,WeatherDisplay:10.37,2013-03-10 22:01:00,
2013-03-11 09:06:00,72.3,65.4,29.98,NNW,335,0.0,0.0,79,0.00,CLR,,0.00,WeatherDisplay:10.37,2013-03-10 22:06:00,
2013-03-11 09:11:00,72.6,65.7,29.98,NNE,15,0.0,0.0,79,0.00,CLR,,0.00,WeatherDisplay:10.37,2013-03-10 22:11:00,
2013-03-11 09:21:00,73.9,66.6,29.98,NNE,29,0.0,0.0,78,0.00,CLR,,0.00,WeatherDisplay:10.37,2013-03-10 22:21:00,
2013-03-11 09:26:00,74.5,67.2,29.99,NNE,31,0.0,0.0,78,0.00,CLR,,0.00,WeatherDisplay:10.37,2013-03-10 22:26:00,
2013-03-11 09:31:00,75.0,66.9,29.99,North,356,0.0,0.0,76,0.00,CLR,,0.00,WeatherDisplay:10.37,2013-03-10 22:31:00,
2013-03-11 09:36:00,75.0,66.9,29.99,WNW,295,0.0,0.0,76,0.00,CLR,,0.00,WeatherDisplay:10.37,2013-03-10 22:36:00,
2013-03-11 09:46:00,74.8,66.4,29.98,East,95,0.0,0.0,75,0.00,CLR,,0.00,WeatherDisplay:10.37,2013-03-10 22:46:00,
2013-03-11 09:51:00,74.8,66.4,29.99,ESE,116,0.0,0.0,75,0.00,CLR,,0.00,WeatherDisplay:10.37,2013-03-10 22:51:00,
2013-03-11 09:56:00,74.7,66.2,29.99,ENE,57,0.0,0.0,75,0.00,CLR,,0.00,WeatherDisplay:10.37,2013-03-10 22:56:00,
2013-03-11 10:01:00,74.8,66.8,29.99,NNE,32,0.0,0.0,76,0.00,CLR,,0.00,WeatherDisplay:10.37,2013-03-10 23:01:00,
2013-03-11 10:06:00,75.0,66.5,29.99,NNE,32,0.0,0.0,75,0.00,CLR,,0.00,WeatherDisplay:10.37,2013-03-10 23:06:00,
2013-03-11 10:11:00,75.0,66.6,29.99,NNE,24,0.0,3.0,75,0.00,CLR,,0.00,WeatherDisplay:10.37,2013-03-10 23:11:00,
2013-03-11 10:16:00,75.0,66.2,29.99,NE,36,0.0,3.0,74,0.00,CLR,,0.00,WeatherDisplay:10.37,2013-03-10 23:16:00,
2013-03-11 10:26:00,76.1,66.8,30.00,NE,36,0.0,3.0,73,0.00,CLR,,0.00,WeatherDisplay:10.37,2013-03-10 23:26:00,
2013-03-11 10:31:00,76.6,67.3,29.99,NNE,32,1.0,3.0,73,0.00,CLR,,0.00,WeatherDisplay:10.37,2013-03-10 23:31:00,
2013-03-11 10:36:00,76.8,67.1,30.00,NNE,23,0.0,3.0,72,0.00,CLR,,0.00,WeatherDisplay:10.37,2013-03-10 23:36:00,
2013-03-11 10:46:00,77.2,66.2,29.99,ENE,71,0.0,2.0,69,0.00,CLR,,0.00,WeatherDisplay:10.37,2013-03-10 23:46:00,
2013-03-11 10:51:00,77.0,66.0,29.99,NE,42,1.0,5.0,69,0.00,CLR,,0.00,WeatherDisplay:10.37,2013-03-10 23:51:00,
2013-03-11 10:56:00,77.2,66.2,30.00,NNE,25,0.0,2.0,69,0.00,CLR,,0.00,WeatherDisplay:10.37,2013-03-10 23:56:00,
2013-03-11 11:01:00,77.2,66.2,30.00,NE,36,0.0,2.0,69,0.00,CLR,,0.00,WeatherDisplay:10.37,2013-03-11 00:01:00,
2013-03-11 11:06:00,77.5,66.5,29.99,NNE,29,0.0,0.0,69,0.00,CLR,,0.00,WeatherDisplay:10.37,2013-03-11 00:06:00,
2013-03-11 11:11:00,77.9,66.9,30.00,NNE,13,0.0,6.0,69,0.00,CLR,,0.00,WeatherDisplay:10.37,2013-03-11 00:11:00,
2013-03-11 11:16:00,78.4,67.0,29.99,NE,52,1.0,6.0,68,0.00,CLR,,0.00,WeatherDisplay:10.37,2013-03-11 00:16:00,
2013-03-11 11:26:00,79.5,67.2,29.99,NE,48,1.0,6.0,66,0.00,CLR,,0.00,WeatherDisplay:10.37,2013-03-11 00:26:00,
2013-03-11 11:31:00,80.3,67.4,29.99,NE,54,5.0,6.0,65,0.00,CLR,,0.00,WeatherDisplay:10.37,2013-03-11 00:31:00,
2013-03-11 11:41:00,81.8,67.5,29.99,NNE,33,0.0,5.0,62,0.00,CLR,,0.00,WeatherDisplay:10.37,2013-03-11 00:41:00,
2013-03-11 11:46:00,82.2,67.4,29.99,North,354,1.0,5.0,61,0.00,CLR,,0.00,WeatherDisplay:10.37,2013-03-11 00:46:00,
2013-03-11 11:56:00,82.1,66.8,29.99,NE,35,1.0,5.0,60,0.00,CLR,,0.00,WeatherDisplay:10.37,2013-03-11 00:56:00,
2013-03-11 12:01:00,81.5,66.3,29.99,NNE,20,1.0,7.0,60,0.00,CLR,,0.00,WeatherDisplay:10.37,2013-03-11 01:01:00,
2013-03-11 12:06:00,81.1,66.4,29.99,WSW,243,1.0,8.0,61,0.00,CLR,,0.00,WeatherDisplay:10.37,2013-03-11 01:06:00,
2013-03-11 12:11:00,81.1,66.4,29.99,East,83,1.0,6.0,61,0.00,CLR,,0.00,WeatherDisplay:10.37,2013-03-11 01:11:00,
2013-03-11 12:21:00,82.0,66.8,29.98,NE,46,0.0,7.0,60,0.00,CLR,,0.00,WeatherDisplay:10.37,2013-03-11 01:21:00,
2013-03-11 12:26:00,82.6,67.3,29.99,NNE,20,0.0,7.0,60,0.00,CLR,,0.00,WeatherDisplay:10.37,2013-03-11 01:26:00,
2013-03-11 12:31:00,83.1,67.3,29.99,NNW,346,1.0,10.0,59,0.00,CLR,,0.00,WeatherDisplay:10.37,2013-03-11 01:31:00,
2013-03-11 12:36:00,83.3,67.0,29.98,WNW,283,3.0,7.0,58,0.00,CLR,,0.00,WeatherDisplay:10.37,2013-03-11 01:36:00,
2013-03-11 12:41:00,83.5,67.1,29.99,NNW,333,2.0,7.0,58,0.00,CLR,,0.00,WeatherDisplay:10.37,2013-03-11 01:41:00,
2013-03-11 12:46:00,83.8,67.4,29.98,NNW,344,3.0,6.0,58,0.00,CLR,,0.00,WeatherDisplay:10.37,2013-03-11 01:46:00,
2013-03-11 12:51:00,83.5,67.1,29.98,NNW,338,2.0,5.0,58,0.00,CLR,,0.00,WeatherDisplay:10.37,2013-03-11 01:51:00,
2013-03-11 12:56:00,83.3,67.0,29.98,NNE,29,1.0,6.0,58,0.00,CLR,,0.00,WeatherDisplay:10.37,2013-03-11 01:56:00,
2013-03-11 13:01:00,83.2,67.4,29.98,SSW,204,2.0,6.0,59,0.00,CLR,,0.00,WeatherDisplay:10.37,2013-03-11 02:01:00,
2013-03-11 13:11:00,83.8,67.5,29.98,North,8,3.0,8.0,58,0.00,CLR,,0.00,WeatherDisplay:10.37,2013-03-11 02:11:00,
2013-03-11 13:16:00,84.0,67.7,29.97,NNW,327,3.0,12.0,58,0.00,CLR,,0.00,WeatherDisplay:10.37,2013-03-11 02:16:00,
2013-03-11 13:26:00,83.8,67.0,29.97,WNW,292,0.0,5.0,57,0.00,CLR,,0.00,WeatherDisplay:10.37,2013-03-11 02:26:00,
2013-03-11 13:31:00,83.9,66.5,29.97,NNW,334,2.0,5.0,56,0.00,CLR,,0.00,WeatherDisplay:10.37,2013-03-11 02:31:00,
2013-03-11 13:36:00,84.0,67.1,29.97,NW,326,1.0,5.0,57,0.00,CLR,,0.00,WeatherDisplay:10.37,2013-03-11 02:36:00,
2013-03-11 13:41:00,84.1,67.2,29.97,NW,308,1.0,3.0,57,0.00,CLR,,0.00,WeatherDisplay:10.37,2013-03-11 02:41:00,
2013-03-11 13:46:00,84.0,66.6,29.97,NE,41,2.0,7.0,56,0.00,CLR,,0.00,WeatherDisplay:10.37,2013-03-11 02:46:00,
2013-03-11 13:51:00,83.8,67.0,29.97,NE,44,3.0,5.0,57,0.00,CLR,,0.00,WeatherDisplay:10.37,2013-03-11 02:51:00,
2013-03-11 13:56:00,83.5,66.1,29.96,WNW,294,0.0,5.0,56,0.00,CLR,,0.00,WeatherDisplay:10.37,2013-03-11 02:56:00,
2013-03-11 14:01:00,83.1,66.3,29.96,North,2,0.0,4.0,57,0.00,CLR,,0.00,WeatherDisplay:10.37,2013-03-11 03:01:00,
2013-03-11 14:11:00,82.8,66.5,29.96,East,94,1.0,5.0,58,0.00,CLR,,0.00,WeatherDisplay:10.37,2013-03-11 03:11:00,
2013-03-11 14:16:00,82.7,66.4,29.96,NE,35,1.0,8.0,58,0.00,CLR,,0.00,WeatherDisplay:10.37,2013-03-11 03:16:00,
2013-03-11 14:21:00,82.9,66.6,29.96,NNE,28,0.0,8.0,58,0.00,CLR,,0.00,WeatherDisplay:10.37,2013-03-11 03:21:00,
2013-03-11 14:26:00,83.1,66.8,29.96,NNW,334,5.0,10.0,58,0.00,CLR,,0.00,WeatherDisplay:10.37,2013-03-11 03:26:00,
2013-03-11 14:31:00,83.3,67.0,29.95,NNW,332,2.0,6.0,58,0.00,CLR,,0.00,WeatherDisplay:10.37,2013-03-11 03:31:00,
2013-03-11 14:36:00,83.6,67.2,29.95,North,354,1.0,5.0,58,0.00,CLR,,0.00,WeatherDisplay:10.37,2013-03-11 03:36:00,
2013-03-11 14:41:00,84.0,67.1,29.95,North,353,1.0,8.0,57,0.00,CLR,,0.00,WeatherDisplay:10.37,2013-03-11 03:41:00,
2013-03-11 14:46:00,84.4,67.5,29.95,NW,322,1.0,6.0,57,0.00,CLR,,0.00,WeatherDisplay:10.37,2013-03-11 03:46:00,
2013-03-11 14:51:00,84.4,67.0,29.95,NW,320,2.0,6.0,56,0.00,CLR,,0.00,WeatherDisplay:10.37,2013-03-11 03:51:00,
2013-03-11 15:01:00,84.4,67.0,29.95,West,263,1.0,6.0,56,0.00,CLR,,0.00,WeatherDisplay:10.37,2013-03-11 04:01:00,
2013-03-11 15:06:00,84.4,67.0,29.95,NNE,30,1.0,8.0,56,0.00,CLR,,0.00,WeatherDisplay:10.37,2013-03-11 04:06:00,
2013-03-11 15:21:00,84.4,67.0,29.94,NNE,12,1.0,4.0,56,0.00,CLR,,0.00,WeatherDisplay:10.37,2013-03-11 04:21:00,
2013-03-11 15:26:00,84.6,67.1,29.94,NNW,338,0.0,6.0,56,0.00,CLR,,0.00,WeatherDisplay:10.37,2013-03-11 04:26:00,
2013-03-11 15:31:00,84.7,67.3,29.94,WNW,288,1.0,3.0,56,0.00,CLR,,0.00,WeatherDisplay:10.37,2013-03-11 04:31:00,
2013-03-11 15:36:00,84.7,67.3,29.94,NW,305,2.0,6.0,56,0.00,CLR,,0.00,WeatherDisplay:10.37,2013-03-11 04:36:00,
2013-03-11 15:41:00,84.6,67.6,29.94,West,263,2.0,8.0,57,0.00,CLR,,0.00,WeatherDisplay:10.37,2013-03-11 04:41:00,
2013-03-11 15:46:00,84.4,67.5,29.94,ENE,73,2.0,8.0,57,0.00,CLR,,0.00,WeatherDisplay:10.37,2013-03-11 04:46:00,
2013-03-11 15:51:00,84.0,67.1,29.94,ESE,110,2.0,6.0,57,0.00,CLR,,0.00,WeatherDisplay:10.37,2013-03-11 04:51:00,
2013-03-11 15:56:00,83.5,67.2,29.94,NE,40,1.0,6.0,58,0.00,CLR,,0.00,WeatherDisplay:10.37,2013-03-11 04:56:00,
2013-03-11 16:01:00,83.3,67.0,29.94,North,357,0.0,5.0,58,0.00,CLR,,0.00,WeatherDisplay:10.37,2013-03-11 05:01:00,
2013-03-11 16:11:00,83.1,66.8,29.94,NNE,20,1.0,4.0,58,0.00,CLR,,0.00,WeatherDisplay:10.37,2013-03-11 05:11:00,
2013-03-11 16:16:00,83.3,66.5,29.94,NE,50,1.0,5.0,57,0.00,CLR,,0.00,WeatherDisplay:10.37,2013-03-11 05:16:00,
2013-03-11 16:21:00,83.2,65.9,29.94,NNE,22,2.0,12.0,56,0.00,CLR,,0.00,WeatherDisplay:10.37,2013-03-11 05:21:00,
2013-03-11 16:31:00,83.4,66.0,29.94,North,360,1.0,5.0,56,0.00,CLR,,0.00,WeatherDisplay:10.37,2013-03-11 05:31:00,
2013-03-11 16:36:00,83.3,65.9,29.94,SW,234,1.0,7.0,56,0.00,CLR,,0.00,WeatherDisplay:10.37,2013-03-11 05:36:00,
2013-03-11 16:41:00,82.9,65.1,29.94,South,191,1.0,6.0,55,0.00,CLR,,0.00,WeatherDisplay:10.37,2013-03-11 05:41:00,
2013-03-11 16:51:00,82.2,65.0,29.93,ENE,70,1.0,5.0,56,0.00,CLR,,0.00,WeatherDisplay:10.37,2013-03-11 05:51:00,
2013-03-11 16:56:00,82.0,64.8,29.93,NNE,26,0.0,6.0,56,0.00,CLR,,0.00,WeatherDisplay:10.37,2013-03-11 05:56:00,
2013-03-11 17:01:00,81.8,64.5,29.93,NE,42,2.0,5.0,56,0.00,CLR,,0.00,WeatherDisplay:10.37,2013-03-11 06:01:00,
2013-03-11 17:06:00,81.6,64.9,29.94,ENE,76,1.0,5.0,57,0.00,CLR,,0.00,WeatherDisplay:10.37,2013-03-11 06:06:00,
2013-03-11 17:11:00,81.3,64.6,29.94,NNW,341,2.0,5.0,57,0.00,CLR,,0.00,WeatherDisplay:10.37,2013-03-11 06:11:00,
2013-03-11 17:16:00,81.0,64.4,29.94,NNW,348,2.0,7.0,57,0.00,CLR,,0.00,WeatherDisplay:10.37,2013-03-11 06:16:00,
2013-03-11 17:21:00,80.6,64.4,29.94,North,350,1.0,5.0,58,0.00,CLR,,0.00,WeatherDisplay:10.37,2013-03-11 06:21:00,
2013-03-11 17:31:00,80.1,65.0,29.94,East,96,1.0,5.0,60,0.00,CLR,,0.00,WeatherDisplay:10.37,2013-03-11 06:31:00,
2013-03-11 17:36:00,79.9,64.8,29.94,East,86,0.0,5.0,60,0.00,CLR,,0.00,WeatherDisplay:10.37,2013-03-11 06:36:00,
2013-03-11 17:41:00,79.5,64.9,29.94,ENE,65,2.0,8.0,61,0.00,CLR,,0.00,WeatherDisplay:10.37,2013-03-11 06:41:00,
2013-03-11 17:46:00,79.5,65.3,29.94,ENE,68,1.0,8.0,62,0.00,CLR,,0.00,WeatherDisplay:10.37,2013-03-11 06:46:00,
2013-03-11 17:51:00,79.5,65.4,29.94,ENE,64,2.0,5.0,62,0.00,CLR,,0.00,WeatherDisplay:10.37,2013-03-11 06:51:00,
2013-03-11 17:56:00,79.3,65.7,29.95,ENE,76,1.0,6.0,63,0.00,CLR,,0.00,WeatherDisplay:10.37,2013-03-11 06:56:00,
2013-03-11 18:01:00,79.3,65.6,29.95,NE,46,2.0,7.0,63,0.00,CLR,,0.00,WeatherDisplay:10.37,2013-03-11 07:01:00,
2013-03-11 18:06:00,79.0,65.4,29.94,North,5,1.0,5.0,63,0.00,CLR,,0.00,WeatherDisplay:10.37,2013-03-11 07:06:00,
2013-03-11 18:11:00,78.8,65.6,29.94,NE,37,0.0,5.0,64,0.00,CLR,,0.00,WeatherDisplay:10.37,2013-03-11 07:11:00,
2013-03-11 18:16:00,78.6,65.4,29.95,NNE,30,0.0,6.0,64,0.00,CLR,,0.00,WeatherDisplay:10.37,2013-03-11 07:16:00,
2013-03-11 18:21:00,78.4,65.2,29.95,NNE,25,1.0,5.0,64,0.00,CLR,,0.00,WeatherDisplay:10.37,2013-03-11 07:21:00,
2013-03-11 18:26:00,78.1,65.4,29.95,East,81,1.0,5.0,65,0.00,CLR,,0.00,WeatherDisplay:10.37,2013-03-11 07:26:00,
2013-03-11 18:31:00,78.1,65.4,29.95,ESE,119,0.0,3.0,65,0.00,CLR,,0.00,WeatherDisplay:10.37,2013-03-11 07:31:00,
2013-03-11 18:36:00,78.0,65.7,29.95,NE,42,1.0,5.0,66,0.00,CLR,,0.00,WeatherDisplay:10.37,2013-03-11 07:36:00,
2013-03-11 18:41:00,77.9,65.6,29.95,NE,37,0.0,3.0,66,0.00,CLR,,0.00,WeatherDisplay:10.37,2013-03-11 07:41:00,
2013-03-11 18:46:00,77.7,65.5,29.95,North,1,1.0,6.0,66,0.00,CLR,,0.00,WeatherDisplay:10.37,2013-03-11 07:46:00,
2013-03-11 18:51:00,77.6,64.9,29.95,NNE,13,0.0,5.0,65,0.00,CLR,,0.00,WeatherDisplay:10.37,2013-03-11 07:51:00,
2013-03-11 18:56:00,77.5,64.4,29.95,ENE,58,0.0,5.0,64,0.00,CLR,,0.00,WeatherDisplay:10.37,2013-03-11 07:56:00,
2013-03-11 19:06:00,77.2,64.1,29.95,NE,45,1.0,8.0,64,0.00,CLR,,0.00,WeatherDisplay:10.37,2013-03-11 08:06:00,
2013-03-11 19:11:00,77.0,64.3,29.96,NE,55,0.0,3.0,65,0.00,CLR,,0.00,WeatherDisplay:10.37,2013-03-11 08:11:00,
2013-03-11 19:16:00,76.8,64.6,29.96,NE,56,0.0,3.0,66,0.00,CLR,,0.00,WeatherDisplay:10.37,2013-03-11 08:16:00,
2013-03-11 19:21:00,76.8,64.6,29.96,NNE,33,0.0,4.0,66,0.00,CLR,,0.00,WeatherDisplay:10.37,2013-03-11 08:21:00,
2013-03-11 19:26:00,76.6,64.9,29.96,NE,37,1.0,6.0,67,0.00,CLR,,0.00,WeatherDisplay:10.37,2013-03-11 08:26:00,
2013-03-11 19:36:00,76.4,64.6,29.96,ESE,110,1.0,3.0,67,0.00,CLR,,0.00,WeatherDisplay:10.37,2013-03-11 08:36:00,
2013-03-11 19:41:00,76.3,64.5,29.97,South,178,0.0,2.0,67,0.00,CLR,,0.00,WeatherDisplay:10.37,2013-03-11 08:41:00,
2013-03-11 19:46:00,76.1,64.4,29.96,SSE,154,0.0,5.0,67,0.00,CLR,,0.00,WeatherDisplay:10.37,2013-03-11 08:46:00,
2013-03-11 19:56:00,75.9,64.2,29.97,East,86,0.0,1.0,67,0.00,CLR,,0.00,WeatherDisplay:10.37,2013-03-11 08:56:00,
2013-03-11 20:01:00,75.9,64.2,29.97,East,82,0.0,0.0,67,0.00,CLR,,0.00,WeatherDisplay:10.37,2013-03-11 09:01:00,
2013-03-11 20:11:00,75.7,64.0,29.98,NE,51,0.0,0.0,67,0.00,CLR,,0.00,WeatherDisplay:10.37,2013-03-11 09:11:00,
2013-03-11 20:21:00,75.4,63.7,29.98,ENE,75,0.0,0.0,67,0.00,CLR,,0.00,WeatherDisplay:10.37,2013-03-11 09:21:00,
2013-03-11 20:26:00,75.4,63.7,29.98,SSW,193,0.0,0.0,67,0.00,CLR,,0.00,WeatherDisplay:10.37,2013-03-11 09:26:00,
2013-03-11 20:31:00,75.2,63.9,29.98,SE,143,0.0,0.0,68,0.00,CLR,,0.00,WeatherDisplay:10.37,2013-03-11 09:31:00,
2013-03-11 20:36:00,75.0,63.7,29.99,SE,125,0.0,0.0,68,0.00,CLR,,0.00,WeatherDisplay:10.37,2013-03-11 09:36:00,
2013-03-11 20:41:00,75.0,63.7,29.99,East,82,0.0,0.0,68,0.00,CLR,,0.00,WeatherDisplay:10.37,2013-03-11 09:41:00,
2013-03-11 20:51:00,74.8,63.6,29.99,ENE,62,0.0,0.0,68,0.00,CLR,,0.00,WeatherDisplay:10.37,2013-03-11 09:51:00,
2013-03-11 20:56:00,74.8,63.6,29.99,ENE,60,0.0,0.0,68,0.00,CLR,,0.00,WeatherDisplay:10.37,2013-03-11 09:56:00,
2013-03-11 21:01:00,74.7,63.4,29.99,ESE,104,0.0,1.0,68,0.00,CLR,,0.00,WeatherDisplay:10.37,2013-03-11 10:01:00,
2013-03-11 21:06:00,74.5,63.2,29.99,ESE,113,0.0,1.0,68,0.00,CLR,,0.00,WeatherDisplay:10.37,2013-03-11 10:06:00,
2013-03-11 21:16:00,74.4,63.6,29.99,NNE,32,0.0,0.0,69,0.00,CLR,,0.00,WeatherDisplay:10.37,2013-03-11 10:16:00,
2013-03-11 21:21:00,74.3,63.5,29.99,NNE,16,0.0,0.0,69,0.00,CLR,,0.00,WeatherDisplay:10.37,2013-03-11 10:21:00,
2013-03-11 21:26:00,74.3,63.5,29.99,East,87,0.0,0.0,69,0.00,CLR,,0.00,WeatherDisplay:10.37,2013-03-11 10:26:00,
2013-03-11 21:31:00,74.3,63.5,29.99,SSE,153,0.0,0.0,69,0.00,CLR,,0.00,WeatherDisplay:10.37,2013-03-11 10:31:00,
2013-03-11 21:36:00,74.1,63.3,29.99,SSE,147,0.0,0.0,69,0.00,CLR,,0.00,WeatherDisplay:10.37,2013-03-11 10:36:00,
2013-03-11 21:41:00,74.1,63.7,29.99,ESE,112,0.0,0.0,70,0.00,CLR,,0.00,WeatherDisplay:10.37,2013-03-11 10:41:00,
2013-03-11 21:46:00,74.1,63.7,30.00,ESE,104,0.0,0.0,70,0.00,CLR,,0.00,WeatherDisplay:10.37,2013-03-11 10:46:00,
2013-03-11 21:51:00,73.9,63.5,30.00,SE,140,0.0,0.0,70,0.00,CLR,,0.00,WeatherDisplay:10.37,2013-03-11 10:51:00,
2013-03-11 21:56:00,73.9,63.5,30.00,SE,137,0.0,0.0,70,0.00,CLR,,0.00,WeatherDisplay:10.37,2013-03-11 10:56:00,
2013-03-11 22:06:00,73.8,63.4,30.00,South,177,0.0,0.0,70,0.00,CLR,,0.00,WeatherDisplay:10.37,2013-03-11 11:06:00,
2013-03-11 22:11:00,73.8,63.8,30.00,South,169,0.0,0.0,71,0.00,CLR,,0.00,WeatherDisplay:10.37,2013-03-11 11:11:00,
2013-03-11 22:16:00,73.6,63.6,30.00,SE,146,0.0,0.0,71,0.00,CLR,,0.00,WeatherDisplay:10.37,2013-03-11 11:16:00,
2013-03-11 22:26:00,73.6,63.6,30.00,ENE,69,0.0,0.0,71,0.00,CLR,,0.00,WeatherDisplay:10.37,2013-03-11 11:26:00,
2013-03-11 22:31:00,73.6,63.6,30.00,SE,132,0.0,0.0,71,0.00,CLR,,0.00,WeatherDisplay:10.37,2013-03-11 11:31:00,
2013-03-11 22:41:00,73.6,63.6,30.00,ESE,102,0.0,3.0,71,0.00,CLR,,0.00,WeatherDisplay:10.37,2013-03-11 11:41:00,
2013-03-11 22:46:00,73.4,63.4,30.00,NE,56,0.0,0.0,71,0.00,CLR,,0.00,WeatherDisplay:10.37,2013-03-11 11:46:00,
2013-03-11 22:51:00,73.4,63.4,30.00,NE,54,0.0,0.0,71,0.00,CLR,,0.00,WeatherDisplay:10.37,2013-03-11 11:51:00,
2013-03-11 22:56:00,73.4,63.4,30.00,ENE,60,0.0,0.0,71,0.00,CLR,,0.00,WeatherDisplay:10.37,2013-03-11 11:56:00,
2013-03-11 23:06:00,73.4,63.4,30.00,NE,43,0.0,0.0,71,0.00,CLR,,0.00,WeatherDisplay:10.37,2013-03-11 12:06:00,
2013-03-11 23:11:00,73.4,63.4,30.00,NE,45,0.0,0.0,71,0.00,CLR,,0.00,WeatherDisplay:10.37,2013-03-11 12:11:00,
2013-03-11 23:16:00,73.2,63.2,30.00,NE,41,0.0,0.0,71,0.00,CLR,,0.00,WeatherDisplay:10.37,2013-03-11 12:16:00,
2013-03-11 23:21:00,73.2,63.2,30.00,NE,43,0.0,0.0,71,0.00,CLR,,0.00,WeatherDisplay:10.37,2013-03-11 12:21:00,
2013-03-11 23:26:00,73.2,63.2,30.00,NNE,17,0.0,0.0,71,0.00,CLR,,0.00,WeatherDisplay:10.37,2013-03-11 12:26:00,
2013-03-11 23:31:00,73.2,63.2,30.00,NNW,334,0.0,0.0,71,0.00,CLR,,0.00,WeatherDisplay:10.37,2013-03-11 12:31:00,
2013-03-11 23:36:00,73.2,63.2,30.00,West,277,0.0,0.0,71,0.00,CLR,,0.00,WeatherDisplay:10.37,2013-03-11 12:36:00,
2013-03-11 23:41:00,73.0,63.1,30.00,West,269,0.0,0.0,71,0.00,CLR,,0.00,WeatherDisplay:10.37,2013-03-11 12:41:00,
2013-03-11 23:46:00,73.0,63.1,30.00,West,279,0.0,0.0,71,0.00,CLR,,0.00,WeatherDisplay:10.37,2013-03-11 12:46:00,
2013-03-11 23:51:00,73.0,63.1,30.00,West,268,0.0,0.0,71,0.00,CLR,,0.00,WeatherDisplay:10.37,2013-03-11 12:51:00,
2013-03-11 23:56:00,72.7,62.7,29.99,WSW,256,0.0,0.0,71,0.00,CLR,,0.00,WeatherDisplay:10.37,2013-03-11 12:56:00,